[[{"header":{"parameterUnit":"m.s-1","parameterCategory":1,"la1":30.2991,"la2":30.254,"lo1":-89.0895,"lo2":-89.0444,"dy":0.0017,"dx":0.0017,"nx":28,"ny":28,"refTime":"2025-04-24T09:00:00:Z","depth":0,"parameterNumber":2,"parameterNumberName":"U-component_of_WINDS"},"data":[0,0,0,0,0,0,0,0,0,0,0,0,0,0,0,0,0,0,0,0,0,0,0,0,0,0,0,0,0,0,0,0,0,0,0,0,0,0,0,0,0,0,0,0,0,0,0,0,0,0,0,0,0,0,0,0,0,0,-4.4301,-4.4302,0,-4.437,-4.4371,-4.4371,-4.4291,-4.4288,-4.4285,-4.4282,-4.4352,-4.4356,-4.4361,0,0,0,0,0,0,0,0,0,0,0,0,0,-4.41,-4.4104,-4.4301,-4.4302,-4.4303,-4.437,-4.4371,-4.4371,-4.4292,-4.4288,-4.4284,-4.4281,-4.435,-4.4356,-4.4361,0,0,0,0,0,0,0,0,0,0,0,0,0,-4.418,-4.4105,-4.4301,-4.4271,-4.4269,-4.4369,-4.4371,-4.4372,-4.4292,-4.4288,-4.4283,-4.4279,-4.4348,-4.4355,-4.4362,-4.4495,0,0,-4.4383,-4.4386,0,0,0,0,0,0,0,0,-4.4175,-4.4187,-4.4274,-4.4273,-4.4271,-4.4317,-4.4325,-4.4413,-4.4294,-4.4283,-4.4282,-4.4277,-4.4344,-4.4351,-4.4374,-4.4498,-4.4501,-4.4384,-4.4388,-4.4391,-4.4393,0,0,0,0,0,0,0,-4.417,-4.4184,-4.4328,-4.4276,-4.4274,-4.4254,-4.426,-4.4341,-4.4338,-4.4284,-4.4278,-4.4288,-4.4342,-4.4367,-4.4375,-4.4502,-4.4384,-4.439,-4.4394,-4.4397,-4.4738,-4.4742,0,0,0,0,0,0,-4.4168,-4.418,-4.4326,-4.433,-4.4211,-4.4261,-4.4268,-4.4307,-4.4337,-4.4337,-4.4291,-4.4284,-4.4357,-4.4367,-4.4377,-4.4532,-4.4391,-4.4398,-4.4402,-4.4733,-4.4739,-4.4744,0,0,0,0,0,0,-4.4164,-4.4182,-4.4323,-4.4253,-4.427,-4.4269,-4.4314,-4.4311,-4.4335,-4.4342,-4.4341,-4.4318,-4.4354,-4.4367,-4.4466,-4.4534,-4.4401,-4.4407,-4.4727,-4.4735,-4.4741,-4.4846,0,0,0,0,0,0,-4.4158,-4.4181,-4.4231,-4.4255,-4.4274,-4.4412,-4.4318,-4.4315,-4.4348,-4.4338,-4.4367,-4.4367,-4.4352,-4.4456,-4.4473,-4.4541,-4.4412,-4.4721,-4.473,-4.4739,-4.4837,-4.4856,-4.4873,0,0,0,0,0,-4.4151,-4.4258,-4.4234,-4.4252,-4.4337,-4.4416,-4.4426,-4.4407,-4.4354,-4.4404,-4.4409,-4.4366,-4.4525,-4.4467,-4.4485,-4.4556,-4.4716,-4.4728,-4.4738,-4.4828,-4.4852,-4.4872,0,0,0,0,0,0,-4.4241,-4.4261,-4.4234,-4.4352,-4.4383,-4.4402,-4.4465,-4.4433,-4.4479,-4.4468,-4.4442,-4.4449,-4.4553,-4.4565,-4.4501,-4.4686,-4.4612,-4.4627,-4.4674,-4.4697,-4.4714,-4.4708,-4.4418,0,0,0,0,0,-4.4275,-4.4338,-4.4351,-4.4454,-4.4471,-4.4466,-4.4499,-4.4481,-4.4512,-4.4524,-4.4536,-4.4567,-4.4623,-4.4661,-4.4714,-4.4839,-4.4843,-4.4897,-4.4915,-4.493,-4.4943,-4.5008,-4.5032,-4.478,-4.478,-4.478,0,0,-4.4345,-4.4363,-4.4404,-4.4472,-4.4494,-4.4558,-4.4477,-4.4549,-4.4596,-4.4535,-4.4628,-4.4639,-4.4672,-4.4784,-4.4834,-4.4797,-4.5014,-4.4944,-4.4956,-4.496,-4.5022,-4.5046,-4.5067,-4.4788,-4.4786,-4.4785,0,0,-4.4505,-4.4526,-4.4613,-4.4636,-4.4671,-4.4667,-4.4688,-4.4712,-4.4717,-4.481,-4.4766,-4.4822,-4.492,-4.4945,-4.4971,-4.5141,-4.5103,-4.5159,-4.5253,-4.5317,-4.5337,-4.5354,-4.5412,-4.5434,-4.5172,-4.5173,-4.5173,0,-4.4587,-4.4682,-4.4661,-4.4736,-4.4767,-4.4716,-4.4803,-4.4827,-4.4877,-4.4899,-4.4857,-4.4979,-4.4998,-4.5114,-4.5156,-4.5179,-4.5201,-4.5154,-4.5336,-4.5353,-4.5369,-4.5424,-4.5446,-4.5179,-4.5178,-4.5178,-4.5177,0,-4.478,-4.4848,-4.4914,-4.4963,-4.5001,-4.5082,-4.5073,-4.5115,-4.5094,-4.5095,-4.519,-4.5212,-4.5267,-4.5294,-4.5275,-4.5408,-4.5384,-4.534,-4.5264,-4.5399,-4.5451,-4.5472,-4.5188,-4.5186,-4.5184,-4.5182,0,0,-4.4996,-4.5033,-4.5058,-4.5079,-4.5114,-4.5165,-4.5244,-4.5298,-4.5333,-4.537,-4.5434,-4.5519,-4.5479,-4.5508,-4.5491,-4.5548,-4.5679,-4.5497,-4.5497,-4.5528,-4.5824,-4.5855,-4.588,-4.5656,-4.566,-4.5663,-4.5821,0,-4.5153,-4.5289,-4.5273,-4.5402,-4.5463,-4.5417,-4.5485,-4.5514,-4.5517,-4.5569,-4.5572,-4.5632,-4.5575,-4.5592,-4.5647,-4.5652,-4.5738,-4.5641,-4.5713,-4.5716,-4.5703,-4.5907,-4.594,-4.6087,-4.5841,-4.5844,-4.5847,0,-4.5355,-4.5398,-4.5534,-4.5559,-4.5584,-4.5646,-4.5694,-4.5745,-4.5776,-4.5774,-4.5808,-4.5782,-4.586,-4.5786,-4.5892,-4.5826,-4.5856,-4.5863,-4.5868,-4.5871,-4.5787,-4.5913,-4.6134,-4.6155,-4.5879,-4.5876,-4.5874,0,-4.5494,-4.5588,-4.568,-4.5701,-4.5733,-4.5777,-4.5792,-4.582,-4.5853,-4.5896,-4.5917,-4.5969,-4.5996,-4.6037,-4.6025,-4.5972,-4.6134,-4.6058,-4.6133,-4.6133,-4.6166,-4.6163,-4.6391,-4.6191,-4.619,-4.619,-4.6189,0,-4.567,-4.5754,-4.5743,-4.58,-4.5893,-4.5874,-4.5967,-4.5976,-4.6001,-4.6058,-4.6023,-4.6077,-4.606,-4.6114,-4.6105,-4.6194,-4.6207,-4.6207,-4.6203,-4.6208,-4.6208,-4.6224,-4.6212,-4.6196,-4.6194,-4.6193,-4.6192,0,-4.584,-4.5837,-4.5934,-4.5957,-4.5965,-4.6032,-4.6051,-4.6105,-4.6106,-4.6179,-4.6195,-4.6197,-4.6258,-4.6251,-4.632,-4.6314,-4.6423,-4.6409,-4.6412,-4.6408,-4.6481,-4.6473,-4.6725,-4.6757,-4.6539,-4.6541,-4.6542,0,-4.595,-4.6014,-4.6044,-4.608,-4.6099,-4.6157,-4.6191,-4.6176,-4.6213,-4.6255,-4.6302,-4.6361,-4.6406,-4.6506,-4.6513,-4.6566,-4.655,-4.6635,-4.6557,-4.656,-4.6548,-4.6543,-4.6548,-4.6649,-4.6652,-4.6654,-4.6655,0,-4.6146,-4.6141,-4.6192,-4.6243,-4.6285,-4.6324,-4.6359,-4.6391,-4.6379,-4.6423,-4.6485,-4.6521,-4.6591,-4.6649,-4.6699,-4.6714,-4.6682,-4.668,-4.67,-4.6704,-4.6702,-4.6701,-4.645,-4.6674,-4.6672,-4.667,-4.6669,-4.6669,-4.6287,-4.6341,-4.637,-4.6428,-4.6454,-4.6488,-4.6538,-4.6546,-4.6598,-4.6654,-4.6643,-4.6713,-4.6743,-4.6806,-4.6827,-4.6881,-4.685,-4.6879,-4.6885,-4.6892,-4.6899,-4.6697,-4.689,-4.689,-4.6889,-4.6889,-4.6889,0,-4.6478,-4.6495,-4.6549,-4.6599,-4.6645,-4.6614,-4.6651,-4.6691,-4.6753,-4.6784,-4.683,-4.6901,-4.6957,-4.697,-4.7023,-4.7064,-4.7051,-4.7078,-4.7073,-4.7077,-4.6925,-4.6901,-4.7088,-4.7088,-4.7088,-4.7088,-4.7088,-4.7088,-4.6582,-4.6671,-4.667,-4.6771,-4.6788,-4.6856,-4.688,-4.6911,-4.6935,-4.7017,-4.7063,-4.7071,-4.7095,-4.715,-4.72,-4.7202,-4.7222,-4.7254,-4.7251,-4.7108,-4.7088,-4.7069,-4.7046,-4.726,-4.726,-4.7397,-4.7399,-4.74]},{"header":{"parameterUnit":"m.s-1","parameterCategory":1,"la1":30.2991,"la2":30.254,"lo1":-89.0895,"lo2":-89.0444,"dy":0.0017,"dx":0.0017,"nx":28,"ny":28,"refTime":"2025-04-24T09:00:00:Z","depth":0,"parameterNumber":3,"parameterNumberName":"V-component_of_WINDS"},"data":[0,0,0,0,0,0,0,0,0,0,0,0,0,0,0,0,0,0,0,0,0,0,0,0,0,0,0,0,0,0,0,0,0,0,0,0,0,0,0,0,0,0,0,0,0,0,0,0,0,0,0,0,0,0,0,0,0,0,1.1206,1.1206,0,1.1199,1.1199,1.1199,1.1135,1.1133,1.1131,1.113,1.1124,1.1126,1.1127,0,0,0,0,0,0,0,0,0,0,0,0,0,1.1166,1.1167,1.1206,1.1206,1.1206,1.1199,1.1199,1.1199,1.1135,1.1133,1.1131,1.1129,1.1124,1.1126,1.1127,0,0,0,0,0,0,0,0,0,0,0,0,0,1.1174,1.1167,1.1206,1.1173,1.117,1.1199,1.1199,1.1199,1.1135,1.1133,1.113,1.1128,1.1124,1.1125,1.1127,1.1188,0,0,1.1134,1.1135,0,0,0,0,0,0,0,0,1.1173,1.1175,1.1178,1.1175,1.1172,1.1165,1.1183,1.1195,1.1136,1.1148,1.113,1.1127,1.114,1.1141,1.1145,1.1188,1.1188,1.1134,1.1135,1.1136,1.1137,0,0,0,0,0,0,0,1.1173,1.1175,1.1203,1.1178,1.1174,1.1159,1.1158,1.1185,1.1158,1.1147,1.1142,1.1142,1.1138,1.1143,1.1144,1.1188,1.1134,1.1136,1.1137,1.1138,1.1282,1.1285,0,0,0,0,0,0,1.1176,1.1175,1.1203,1.1203,1.1167,1.1162,1.116,1.117,1.1157,1.1153,1.1145,1.114,1.1141,1.1142,1.1144,1.1215,1.1136,1.1138,1.1139,1.128,1.1283,1.1286,0,0,0,0,0,0,1.1176,1.118,1.1204,1.1188,1.119,1.1165,1.1176,1.1171,1.1176,1.1155,1.115,1.1154,1.1139,1.1141,1.1178,1.1214,1.1139,1.1141,1.1277,1.1281,1.1284,1.1357,0,0,0,0,0,0,1.1175,1.118,1.1202,1.1189,1.1191,1.1237,1.1179,1.1173,1.1179,1.1172,1.1163,1.1159,1.1137,1.1175,1.118,1.1215,1.1142,1.1273,1.1278,1.1283,1.1351,1.1363,1.1373,0,0,0,0,0,1.1174,1.1223,1.1203,1.1207,1.1218,1.124,1.1241,1.1213,1.1182,1.1205,1.1192,1.116,1.1209,1.118,1.1184,1.1221,1.1271,1.1277,1.1283,1.1347,1.1361,1.1373,0,0,0,0,0,0,1.1241,1.122,1.1199,1.1245,1.1244,1.1229,1.1256,1.1229,1.1238,1.1232,1.1198,1.1196,1.1239,1.1233,1.1201,1.128,1.1234,1.1242,1.1281,1.1295,1.1305,1.1306,1.1144,0,0,0,0,0,1.1261,1.128,1.1261,1.1304,1.1305,1.1281,1.1289,1.1268,1.1267,1.1266,1.1256,1.1257,1.1272,1.1283,1.1296,1.1351,1.1348,1.1378,1.1389,1.1398,1.1404,1.1434,1.1447,1.1305,1.1305,1.1305,0,0,1.1303,1.1294,1.1308,1.1317,1.1314,1.1335,1.1281,1.1305,1.1321,1.127,1.1305,1.1298,1.1296,1.1342,1.1362,1.1339,1.1443,1.1405,1.1413,1.1414,1.1441,1.1455,1.1467,1.1309,1.1308,1.1308,0,0,1.139,1.1385,1.142,1.1419,1.1415,1.1399,1.1408,1.1397,1.139,1.1424,1.1387,1.1406,1.1433,1.1434,1.1437,1.1527,1.1498,1.1532,1.1589,1.1618,1.1629,1.1639,1.1671,1.1683,1.1539,1.1539,1.1539,0,1.1442,1.1472,1.1442,1.1469,1.1474,1.143,1.1466,1.1466,1.1468,1.1473,1.1447,1.1481,1.1477,1.1523,1.1545,1.155,1.1559,1.1533,1.163,1.1639,1.1648,1.1679,1.1691,1.1543,1.1543,1.1542,1.1542,0,1.1537,1.1558,1.1587,1.159,1.1599,1.163,1.1606,1.1619,1.1598,1.1585,1.1621,1.1615,1.1626,1.1636,1.1615,1.168,1.1666,1.1635,1.1589,1.1666,1.1694,1.1706,1.1549,1.1548,1.1546,1.1545,0,0,1.1665,1.1651,1.1662,1.1663,1.1657,1.1674,1.1704,1.1715,1.1727,1.1731,1.1756,1.1781,1.1753,1.1758,1.1737,1.1763,1.1835,1.1729,1.1729,1.175,1.1907,1.193,1.1944,1.1816,1.1818,1.182,1.1907,0,1.1749,1.1799,1.1773,1.1827,1.1847,1.1806,1.1832,1.1832,1.1822,1.1838,1.1826,1.1845,1.1806,1.1809,1.1832,1.1821,1.1866,1.1815,1.184,1.1841,1.1842,1.1959,1.1983,1.2065,1.1918,1.192,1.1921,0,1.1853,1.1861,1.1916,1.1908,1.1915,1.194,1.1949,1.1964,1.1964,1.1954,1.1961,1.1935,1.1965,1.192,1.1961,1.1927,1.1936,1.1932,1.1935,1.1936,1.1886,1.1964,1.2091,1.2104,1.1938,1.1937,1.1936,0,1.1941,1.1966,1.2002,1.2005,1.1995,1.2014,1.2011,1.2008,1.2017,1.2025,1.2031,1.2043,1.2049,1.206,1.2038,1.2007,1.2084,1.2036,1.2077,1.2078,1.2095,1.2094,1.2226,1.2101,1.2101,1.21,1.21,0,1.2038,1.2074,1.2042,1.2065,1.2104,1.2076,1.2116,1.2109,1.2107,1.2128,1.2094,1.2115,1.2085,1.2103,1.2086,1.2124,1.2127,1.2121,1.2117,1.2125,1.2125,1.213,1.2124,1.2104,1.2103,1.2102,1.2102,0,1.2143,1.2123,1.216,1.2149,1.2147,1.2177,1.2168,1.2189,1.2176,1.2204,1.2209,1.219,1.221,1.2189,1.2208,1.2197,1.2248,1.2234,1.2248,1.2244,1.2287,1.2283,1.2426,1.2444,1.2307,1.2309,1.231,0,1.2205,1.2232,1.2224,1.2236,1.2235,1.2254,1.2263,1.2237,1.2248,1.225,1.2272,1.2289,1.2301,1.2335,1.2323,1.2338,1.2325,1.2374,1.2327,1.2335,1.2326,1.2325,1.2328,1.2384,1.2385,1.2387,1.2388,0,1.2319,1.2309,1.2323,1.2334,1.2346,1.2354,1.2359,1.2371,1.2343,1.2358,1.2378,1.2387,1.2407,1.2425,1.2436,1.2434,1.2407,1.2403,1.2413,1.2422,1.2429,1.2426,1.2275,1.24,1.2398,1.2398,1.2397,1.2396,1.2405,1.2428,1.2426,1.2443,1.2445,1.2451,1.247,1.2461,1.2477,1.249,1.2474,1.2499,1.2499,1.2512,1.2513,1.2533,1.2512,1.2527,1.2531,1.2535,1.2542,1.2426,1.2535,1.2534,1.2534,1.2534,1.2534,0,1.2518,1.2515,1.2531,1.254,1.2554,1.2527,1.2532,1.2546,1.2568,1.2571,1.2584,1.2608,1.2625,1.2616,1.2631,1.2649,1.2637,1.2654,1.2652,1.2653,1.2559,1.2549,1.2663,1.2663,1.2663,1.2663,1.2663,1.2663,1.2578,1.2615,1.2604,1.2642,1.2639,1.2663,1.2668,1.2674,1.2676,1.2704,1.2719,1.2712,1.271,1.2725,1.2741,1.2738,1.2745,1.2767,1.2759,1.2672,1.2659,1.2647,1.2637,1.2768,1.2769,1.2851,1.2852,1.2853]}]]